Regional Weather Roundup
Issued by NWS

Home | Current Version | Previous Version | Graphics & Text | Print | Product List | Glossary Off
Versions: 1 2 3 4 5 6 7 8 9 10 11 12 13 14 15 16 17 18 19 20 21 22 23 24 25 26 27 28

000
ASUS45 KBOU 170007
RWRCO

WEATHER ROUNDUP FOR COLORADO
NATIONAL WEATHER SERVICE DENVER/BOULDER CO
600 PM MDT WED AUG 16 2017

NOTE: "FAIR" INDICATES FEW OR NO CLOUDS BELOW 12000 FEET WITH NO
SIGNIFICANT WEATHER AND/OR OBSTRUCTIONS TO VISIBILITY.

COZ001>005-013-030-031-170100-
...NORTHWEST COLORADO...

CITY           SKY/WX    TMP DP  RH WIND       PRES   REMARKS
CRAIG          FAIR      78  27  15 NW7       30.16F
HAYDEN         FAIR      75  32  20 W13       30.21S
MEEKER         FAIR      77  27  15 N8        30.16F
RABBIT EARS PA FAIR      54  34  47 W6        30.46R
STEAMBOAT SPGS FAIR      69  39  33 W5        30.21R
WALDEN         PTSUNNY   57  41  54 SE8       30.32S
$$

COZ006>008-011-170100-
...WEST CENTRAL VALLEYS...

CITY           SKY/WX    TMP DP  RH WIND       PRES   REMARKS
GRAND JUNCTION FAIR      85  33  15 NW13      30.03F
MONTROSE       FAIR      81  35  19 N7        30.12S
EAGLE          FAIR      75  37  25 W13       30.19R
RIFLE          FAIR      80  37  21 N9        30.09F
DELTA          FAIR      88  29  12 W7        30.07S
NUCLA          FAIR      82  19   9 W10       30.15S
$$

COZ017>023-064>068-170100-
...SOUTHWEST COLORADO...

CITY           SKY/WX    TMP DP  RH WIND       PRES   REMARKS
DURANGO        FAIR      79  24  13 NW9       30.17S
CORTEZ         FAIR      82  21  10 NW6       30.13F
PAGOSA SPRINGS FAIR      76  20  12 SW10G16   30.25S
TELLURIDE      FAIR      68  23  18 NW6       30.38R
WOLF CREEK PAS FAIR      52  30  43 S9G21     30.60S
$$

COZ009-010-012-014-032>034-037-058>063-170100-
...CENTRAL COLORADO...

CITY           SKY/WX    TMP DP  RH WIND       PRES   REMARKS
ASPEN          FAIR      72  32  23 W9        30.24S
BUENA VISTA    CLOUDY    71  29  21 W9        30.24R
COPPER MTN     CLOUDY    54  30  40 W9        30.55R
BERTHOUD PASS  PTSUNNY   37  34  87 NW18      30.55F
COTTONWOOD PAS CLOUDY    68  27  21 CALM      30.39R
GUNNISON       FAIR      72  32  23 W12       30.25R
KREMMLING      FAIR      73  30  20 NW12G18   30.24R
LEADVILLE      FAIR      59  27  29 W12G18    30.38S
MONARCH PASS   FAIR      54  25  32 W25       30.64S
SALIDA         FAIR      76  31  19 W12       30.28R
SUNLIGHT       FAIR      54  32  43 CALM      30.50S
WILKERSON PASS CLOUDY    50  37  62 SE5       30.52S
$$

COZ069>075-170100-
...SAN LUIS VALLEY/SANGRE DE CRISTO MOUNTAINS...

CITY           SKY/WX    TMP DP  RH WIND       PRES   REMARKS
ALAMOSA        FAIR      74  33  22 SW7       30.21F
DEL NORTE      FAIR      69  38  32 SE3       30.26R
LA VETA PASS   NOT AVBL
SAGUACHE       CLOUDY    70  36  28 CALM      30.25R
$$

COZ035-036-038>040-170100-
...NORTHERN COLORADO FRONT RANGE...

CITY           SKY/WX    TMP DP  RH WIND       PRES   REMARKS
DENVER INTL AP FAIR      75  43  31 W5        30.14R
DMNS CITY PARK   N/A     72  40  31 N8G16     30.14R
AURORA         MOSUNNY   74  44  33 N8        30.16R
FRONT RANGE AP FAIR      73  41  31 N8        30.15S
ERIE MUNI ARPT FAIR      74  44  33 CALM      30.18R
BOULDER MUN AP FAIR      70  43  37 CALM      30.14S
CENTENNIAL     FAIR      73  43  33 NE13      30.16R
BROOMFIELD     PTSUNNY   73  45  35 NW6       30.16R
FORT COLLINS   PTSUNNY   70  51  51 W12       30.13R
LONGMONT       FAIR      78  47  33 W5        30.14R
$$

COZ041-046-047-076>085-087-088-170100-
...PIKES PEAK/PALMER DIVIDE AND SOUTHERN FOOTHILLS...

CITY           SKY/WX    TMP DP  RH WIND       PRES   REMARKS
COLO. SPRINGS  TSTM      67  52  58 S6        30.20R
A. F. ACADEMY  FAIR      67  48  49 S7        30.20R
SCHRIEVER AFB  PTSUNNY   66  50  55 NE10      30.20R
CHEYENNE MTN   PTSUNNY   61  51  69 W8        30.18R
ELLICOTT       FAIR     N/A N/A N/A NE10      30.18R
FALCON         PTSUNNY   67  49  53 NE8       30.24S
FORT CARSON    PTSUNNY   67  53  60 N10       30.16R
LIMON          FAIR      73  45  36 N10       30.14S
MONUMENT HILL  FAIR      63  43  48 E3        30.26R
CANON CITY     SUNNY     81  48  32 E12       30.10R
WALSENBURG     FAIR      81  45  28 SE10      30.13S
TRINIDAD       FAIR      77  47  34 SE13      30.12S
$$

COZ042>045-048>051-090-091-170100-
...NORTHEAST COLORADO...

CITY           SKY/WX    TMP DP  RH WIND       PRES   REMARKS
GREELEY ARPT   FAIR      77  50  38 S5        30.11R
AKRON          NOT AVBL
BURLINGTON     NOT AVBL
WRAY           NOT AVBL
YUMA           MOCLDY    73  36  25 N12       30.06R
STERLING       FAIR      77  48  36 N8        30.04S
HOLYOKE        FAIR      79  55  44 N13G20    30.04S
FORT MORGAN    FAIR      79  38  23 N7        30.09S
$$

COZ086-089-092>099-170100-
...SOUTHEAST COLORADO...

CITY           SKY/WX    TMP DP  RH WIND       PRES   REMARKS
PUEBLO         FAIR      80  48  32 E15       30.06R
LA JUNTA       NOT AVBL
LAMAR          NOT AVBL
SPRINGFIELD      N/A     80  52  37 N9        30.06S
$$




USA.gov is the U.S. government's official web portal to all federal, state and local government web resources and services.